• In Portugal
  • List of Countries
  • For 7 days
  • Water Temperature
  • Satellite Maps
  • Weather Map
  • Weather Widgets
  • user-avatar
    Login

    Hourly Weather Suszki

    Today, 19 July, Thursday

    Time Temperature Precipitation Wind Pressure Humidity
    00:00 +17°C° 0 mm 2 mps 741 mmHg 91%
    01:00 +17°C° 0 mm 2 mps 741 mmHg 93%
    02:00 +17°C° 0 mm 2 mps 741 mmHg 94%
    03:00 +16°C° 0 mm 3 mps 741 mmHg 94%
    04:00 +16°C° 0 mm 3 mps 741 mmHg 95%
    05:00 +17°C° 0 mm 3 mps 741 mmHg 92%
    06:00 +18°C° 0 mm 4 mps 741 mmHg 89%
    07:00 +19°C° 0 mm 5 mps 741 mmHg 86%
    08:00 +19°C° 0.1 mm 5 mps 742 mmHg 83%
    09:00 +20°C° 0.1 mm 5 mps 742 mmHg 81%
    10:00 +21°C° 0.1 mm 5 mps 742 mmHg 78%
    11:00 +20°C° 0.5 mm 5 mps 742 mmHg 81%
    12:00 +20°C° 0.5 mm 5 mps 742 mmHg 84%
    13:00 +19°C° 0.5 mm 5 mps 742 mmHg 87%
    14:00 +19°C° 0.2 mm 5 mps 742 mmHg 86%
    15:00 +20°C° 0.2 mm 4 mps 742 mmHg 86%
    16:00 +20°C° 0.2 mm 4 mps 741 mmHg 85%
    17:00 +20°C° 0.1 mm 3 mps 741 mmHg 85%
    18:00 +20°C° 0.1 mm 3 mps 742 mmHg 84%
    19:00 +20°C° 0.1 mm 2 mps 742 mmHg 83%
    20:00 +19°C° 0 mm 2 mps 742 mmHg 86%
    21:00 +18°C° 0 mm 2 mps 742 mmHg 89%
    22:00 +18°C° 0 mm 2 mps 742 mmHg 92%
    23:00 +17°C° 0 mm 2 mps 742 mmHg 93%

    Tomorrow, 20 July, Friday

    Time Temperature Precipitation Wind Pressure Humidity
    00:00 +16°C° 0 mm 2 mps 742 mmHg 93%
    01:00 +16°C° 0 mm 2 mps 742 mmHg 94%
    02:00 +15°C° 0 mm 2 mps 742 mmHg 94%
    03:00 +15°C° 0 mm 2 mps 742 mmHg 94%
    04:00 +14°C° 0 mm 1 mps 742 mmHg 93%
    05:00 +16°C° 0 mm 2 mps 742 mmHg 87%
    06:00 +17°C° 0 mm 2 mps 742 mmHg 81%
    07:00 +18°C° 0 mm 2 mps 742 mmHg 76%
    08:00 +20°C° 0 mm 2 mps 742 mmHg 66%
    09:00 +22°C° 0 mm 3 mps 742 mmHg 56%
    10:00 +24°C° 0 mm 3 mps 743 mmHg 46%
    11:00 +25°C° 0 mm 3 mps 742 mmHg 43%
    12:00 +26°C° 0 mm 3 mps 742 mmHg 41%
    13:00 +27°C° 0 mm 3 mps 742 mmHg 38%
    14:00 +27°C° 0 mm 3 mps 741 mmHg 38%
    15:00 +27°C° 0 mm 3 mps 741 mmHg 39%
    16:00 +27°C° 0 mm 2 mps 741 mmHg 39%
    17:00 +26°C° 0 mm 2 mps 741 mmHg 45%
    18:00 +25°C° 0 mm 2 mps 741 mmHg 51%
    19:00 +23°C° 0 mm 1 mps 741 mmHg 57%
    20:00 +22°C° 0 mm 1 mps 741 mmHg 60%
    21:00 +20°C° 0 mm 1 mps 741 mmHg 62%
    22:00 +17°C° 0 mm 0 mps 741 mmHg 65%
    23:00 +18°C° 0 mm 1 mps 741 mmHg 67%

    Day after tomorrow, 21 July, Saturday

    Time Temperature Precipitation Wind Pressure Humidity
    00:00 +18°C° 0 mm 1 mps 741 mmHg 69%
    01:00 +16°C° 0 mm 1 mps 740 mmHg 71%
    02:00 +16°C° 0 mm 1 mps 740 mmHg 72%
    03:00 +16°C° 0 mm 1 mps 740 mmHg 73%
    04:00 +16°C° 0 mm 1 mps 740 mmHg 74%
    05:00 +18°C° 0 mm 1 mps 740 mmHg 70%
    06:00 +20°C° 0 mm 1 mps 740 mmHg 66%
    07:00 +21°C° 0 mm 1 mps 740 mmHg 62%
    08:00 +23°C° 0 mm 1 mps 740 mmHg 56%
    09:00 +25°C° 0 mm 1 mps 740 mmHg 51%
    10:00 +27°C° 0 mm 1 mps 740 mmHg 46%
    11:00 +27°C° 0 mm 1 mps 740 mmHg 43%
    12:00 +28°C° 0 mm 1 mps 740 mmHg 41%
    13:00 +28°C° 0 mm 1 mps 739 mmHg 38%
    14:00 +28°C° 0 mm 1 mps 739 mmHg 38%
    15:00 +28°C° 0 mm 1 mps 739 mmHg 38%
    16:00 +28°C° 0 mm 1 mps 739 mmHg 38%
    17:00 +27°C° 0 mm 1 mps 739 mmHg 44%
    18:00 +26°C° 0 mm 1 mps 739 mmHg 49%
    19:00 +24°C° 0 mm 1 mps 739 mmHg 55%
    20:00 +23°C° 0 mm 1 mps 739 mmHg 58%
    21:00 +22°C° 0 mm 1 mps 739 mmHg 61%
    22:00 +20°C° 0 mm 1 mps 739 mmHg 64%
    23:00 +20°C° 0 mm 1 mps 739 mmHg 67%

    22 July, Sunday

    Time Temperature Precipitation Wind Pressure Humidity
    00:00 +19°C° 0 mm 1 mps 739 mmHg 69%
    01:00 +19°C° 0 mm 1 mps 738 mmHg 72%
    02:00 +18°C° 0 mm 1 mps 738 mmHg 73%
    03:00 +18°C° 0 mm 1 mps 738 mmHg 74%
    04:00 +18°C° 0 mm 1 mps 738 mmHg 76%
    05:00 +19°C° 0 mm 1 mps 738 mmHg 72%
    06:00 +21°C° 0 mm 1 mps 738 mmHg 69%
    07:00 +22°C° 0 mm 1 mps 738 mmHg 66%
    08:00 +23°C° 0.1 mm 1 mps 739 mmHg 61%
    09:00 +25°C° 0.1 mm 2 mps 739 mmHg 57%
    10:00 +26°C° 0.1 mm 2 mps 739 mmHg 53%
    11:00 +27°C° 0.2 mm 2 mps 739 mmHg 51%
    12:00 +27°C° 0.2 mm 2 mps 739 mmHg 48%
    13:00 +28°C° 0.2 mm 2 mps 738 mmHg 46%
    14:00 +27°C° 0.2 mm 2 mps 738 mmHg 48%
    15:00 +27°C° 0.2 mm 3 mps 738 mmHg 50%
    16:00 +26°C° 0.2 mm 3 mps 738 mmHg 52%
    17:00 +25°C° 0.1 mm 3 mps 739 mmHg 58%
    18:00 +22°C° 0.1 mm 3 mps 739 mmHg 64%
    19:00 +21°C° 0.1 mm 2 mps 739 mmHg 70%
    20:00 +20°C° 0.1 mm 2 mps 739 mmHg 73%
    21:00 +20°C° 0.1 mm 2 mps 739 mmHg 76%
    22:00 +19°C° 0.1 mm 2 mps 740 mmHg 78%
    23:00 +19°C° 0.1 mm 2 mps 740 mmHg 80%

    23 July, Monday

    Time Temperature Precipitation Wind Pressure Humidity
    00:00 +18°C° 0.1 mm 2 mps 740 mmHg 82%
    01:00 +18°C° 0.1 mm 2 mps 740 mmHg 83%
    02:00 +18°C° 0.2 mm 2 mps 740 mmHg 86%
    03:00 +17°C° 0.2 mm 2 mps 740 mmHg 88%
    04:00 +16°C° 0.2 mm 2 mps 740 mmHg 90%
    05:00 +17°C° 0.2 mm 2 mps 741 mmHg 88%
    06:00 +18°C° 0.2 mm 2 mps 741 mmHg 86%
    07:00 +19°C° 0.2 mm 3 mps 742 mmHg 83%
    08:00 +20°C° 0.6 mm 3 mps 742 mmHg 78%
    09:00 +22°C° 0.6 mm 3 mps 742 mmHg 72%
    10:00 +23°C° 0.6 mm 4 mps 742 mmHg 66%
    11:00 +25°C° 0.4 mm 4 mps 742 mmHg 62%
    12:00 +26°C° 0.4 mm 4 mps 741 mmHg 57%
    13:00 +26°C° 0.4 mm 4 mps 741 mmHg 52%
    14:00 +27°C° 0.1 mm 4 mps 741 mmHg 51%
    15:00 +27°C° 0.1 mm 4 mps 741 mmHg 50%
    16:00 +27°C° 0.1 mm 3 mps 741 mmHg 49%
    17:00 +26°C° 0 mm 3 mps 741 mmHg 53%
    18:00 +25°C° 0 mm 2 mps 741 mmHg 57%
    19:00 +24°C° 0 mm 2 mps 742 mmHg 62%
    20:00 +22°C° 0 mm 1 mps 742 mmHg 66%
    21:00 +21°C° 0 mm 1 mps 742 mmHg 70%
    22:00 +19°C° 0 mm 1 mps 742 mmHg 74%
    23:00 +18°C° 0 mm 1 mps 742 mmHg 76%

    24 July, Tuesday

    Time Temperature Precipitation Wind Pressure Humidity
    00:00 +18°C° 0 mm 1 mps 742 mmHg 79%
    01:00 +15°C° 0 mm 0 mps 742 mmHg 82%
    02:00 +15°C° 0 mm 0 mps 742 mmHg 83%
    03:00 +15°C° 0 mm 0 mps 742 mmHg 84%
    04:00 +14°C° 0 mm 0 mps 742 mmHg 86%
    05:00 +16°C° 0 mm 0 mps 743 mmHg 79%
    06:00 +18°C° 0 mm 0 mps 743 mmHg 73%
    07:00 +20°C° 0 mm 0 mps 743 mmHg 67%
    08:00 +23°C° 0 mm 1 mps 743 mmHg 62%
    09:00 +25°C° 0 mm 1 mps 743 mmHg 57%
    10:00 +27°C° 0 mm 1 mps 743 mmHg 52%
    11:00 +27°C° 0 mm 1 mps 743 mmHg 51%
    12:00 +27°C° 0 mm 2 mps 743 mmHg 50%
    13:00 +28°C° 0 mm 2 mps 742 mmHg 49%
    14:00 +28°C° 0 mm 2 mps 742 mmHg 49%
    15:00 +28°C° 0 mm 2 mps 742 mmHg 49%
    16:00 +28°C° 0 mm 2 mps 742 mmHg 49%
    17:00 +27°C° 0 mm 2 mps 742 mmHg 55%
    18:00 +26°C° 0 mm 1 mps 742 mmHg 60%
    19:00 +25°C° 0 mm 1 mps 742 mmHg 65%
    20:00 +24°C° 0 mm 1 mps 742 mmHg 70%
    21:00 +22°C° 0 mm 1 mps 743 mmHg 74%
    22:00 +21°C° 0 mm 1 mps 743 mmHg 78%
    23:00 +20°C° 0 mm 1 mps 743 mmHg 80%
    Show more